This is the latest recevied weather packets stored in our database for station/object KG2V. If no packets are shown the sender has not sent any weather packets the latest 10 day(s).
| Time | Temp. | Humidity | Pressure | Rain* | Wind** | Luminosity | Snow |
|---|---|---|---|---|---|---|---|
| 1778237023 | 3.89° C | 99% | 1006.8 hPa | 0 mm | - | 29 W/m² | - |
| 1778236721 | 3.89° C | 99% | 1006.7 hPa | 0 mm | - | 19 W/m² | - |
| 1778236417 | 3.33° C | 99% | 1007 hPa | 0 mm | - | 13 W/m² | - |
| 1778236115 | 3.33° C | 99% | 1006.8 hPa | 0 mm | - | 14 W/m² | - |
| 1778235813 | 3.33° C | 99% | 1006.7 hPa | 0 mm | - | 12 W/m² | - |
| 1778235510 | 3.33° C | 99% | 1006.9 hPa | 0 mm | - | 8 W/m² | - |
| 1778235207 | 3.33° C | 99% | 1006.6 hPa | 0 mm | - | 7 W/m² | - |
| 1778234904 | 3.33° C | 99% | 1006.9 hPa | 0 mm | - | 4 W/m² | - |
| 1778234603 | 3.33° C | 99% | 1006.8 hPa | 0 mm | - | 2 W/m² | - |
| 1778234298 | 3.33° C | 99% | 1006.9 hPa | 0 mm | - | 2 W/m² | - |
| 1778233996 | 3.33° C | 99% | 1006.9 hPa | 0 mm | - | 1 W/m² | - |
| 1778233693 | 3.33° C | 99% | 1006.9 hPa | 0 mm | - | 0 W/m² | - |
| 1778233390 | 3.33° C | 99% | 1007.2 hPa | 0 mm | - | 0 W/m² | - |
| 1778233087 | 3.33° C | 99% | 1007.3 hPa | 0 mm | - | 0 W/m² | - |
| 1778232784 | 3.33° C | 99% | 1007.1 hPa | 0 mm | - | 0 W/m² | - |
| 1778232481 | 3.33° C | 99% | 1007.2 hPa | 0 mm | - | 0 W/m² | - |
| 1778232179 | 3.33° C | 99% | 1007.2 hPa | 0 mm | - | 0 W/m² | - |
| 1778231877 | 3.33° C | 99% | 1007.4 hPa | 0 mm | - | 0 W/m² | - |
| 1778231574 | 3.33° C | 99% | 1007.6 hPa | 0 mm | - | 0 W/m² | - |
| 1778231272 | 2.78° C | 99% | 1007.3 hPa | 0 mm | - | 0 W/m² | - |
| 1778230969 | 2.78° C | 99% | 1007.4 hPa | 0 mm | - | 0 W/m² | - |
| 1778230665 | 2.78° C | 99% | 1007.5 hPa | 0 mm | - | 0 W/m² | - |
| 1778230363 | 2.78° C | 99% | 1007.3 hPa | 0 mm | - | 0 W/m² | - |
| 1778230058 | 2.78° C | 99% | 1007.4 hPa | 0 mm | - | 0 W/m² | - |
| 1778229756 | 2.78° C | 99% | 1007.4 hPa | 0 mm | - | 0 W/m² | - |
* Rain latest hour (hover to see other rain measurements)
** Current wind speed in m/s (hover to see current wind gust speed)